TimeCST,TemperatureF,Dew PointF,Humidity,Sea Level PressureIn,VisibilityMPH,Wind Direction,Wind SpeedMPH,Gust SpeedMPH,PrecipitationIn,Events,Conditions,WindDirDegrees,DateUTC
12:56 AM,55.9,52.0,87,30.01,10.0,North,8.1,-,N/A,,Clear,350,2012-11-05 06:56:00
1:56 AM,55.0,50.0,83,30.01,10.0,North,8.1,-,N/A,,Clear,350,2012-11-05 07:56:00
2:56 AM,53.1,48.9,86,30.01,10.0,NNW,3.5,-,N/A,,Clear,330,2012-11-05 08:56:00
3:56 AM,50.0,46.9,89,30.02,10.0,North,4.6,-,N/A,,Clear,350,2012-11-05 09:56:00
4:56 AM,51.1,46.9,86,30.02,10.0,North,4.6,-,N/A,,Clear,10,2012-11-05 10:56:00
5:56 AM,51.1,46.0,83,30.04,10.0,NE,4.6,-,N/A,,Clear,40,2012-11-05 11:56:00
6:56 AM,51.1,46.0,83,30.04,10.0,North,5.8,-,N/A,,Clear,10,2012-11-05 12:56:00
7:56 AM,55.0,46.0,72,30.05,10.0,NE,5.8,-,N/A,,Clear,40,2012-11-05 13:56:00
8:56 AM,57.9,45.0,62,30.05,10.0,NE,5.8,-,N/A,,Clear,50,2012-11-05 14:56:00
9:56 AM,64.0,39.0,40,30.04,10.0,East,5.8,-,N/A,,Clear,90,2012-11-05 15:56:00
10:56 AM,69.1,36.0,30,30.01,10.0,ENE,6.9,-,N/A,,Clear,60,2012-11-05 16:56:00
11:56 AM,71.1,35.1,27,29.97,10.0,ESE,4.6,-,N/A,,Clear,120,2012-11-05 17:56:00
12:56 PM,72.0,36.0,27,29.95,10.0,SSE,4.6,-,N/A,,Clear,160,2012-11-05 18:56:00
1:56 PM,73.0,34.0,24,29.93,10.0,SE,3.5,-,N/A,,Overcast,140,2012-11-05 19:56:00
2:56 PM,71.1,41.0,34,29.94,10.0,Variable,5.8,-,N/A,,Clear,0,2012-11-05 20:56:00
3:56 PM,69.1,45.0,42,29.94,10.0,Calm,Calm,-,N/A,,Mostly Cloudy,0,2012-11-05 21:56:00
4:56 PM,66.0,41.0,40,29.96,10.0,North,9.2,-,N/A,,Mostly Cloudy,350,2012-11-05 22:56:00
5:56 PM,61.0,46.9,60,29.94,10.0,SSE,5.8,-,0.00,,Overcast,150,2012-11-05 23:56:00
6:56 PM,62.1,46.0,56,29.93,10.0,South,4.6,-,0.00,,Overcast,190,2012-11-06 00:56:00
7:56 PM,55.9,51.1,84,29.93,10.0,SE,3.5,-,0.05,Rain,Rain,140,2012-11-06 01:56:00
8:56 PM,57.0,51.1,81,29.92,10.0,Calm,Calm,-,0.01,,Scattered Clouds,0,2012-11-06 02:56:00
9:51 PM,55.4,50.0,82,29.92,10.0,ENE,5.8,-,0.01,Thunderstorm,Thunderstorm,60,2012-11-06 03:51:00
9:56 PM,55.9,50.0,80,29.87,10.0,ENE,4.6,-,0.01,Thunderstorm,Thunderstorm,60,2012-11-06 03:56:00
10:56 PM,57.9,48.9,72,29.90,10.0,NNW,10.4,-,0.00,Rain-Thunderstorm,Light Thunderstorms and Rain,340,2012-11-06 04:56:00
11:56 PM,54.0,53.1,97,29.88,5.0,South,3.5,-,0.48,Rain-Thunderstorm,Heavy Thunderstorms and Rain,190,2012-11-06 05:56:00